BREEZE-KM DEB, 41722

Orbit data source: Space-Track

BREEZE-KM DEB, 41722 is space debris in LEO originally from a launch on Tue, 31 Mar 2015 UTC launched from the Plesetsk Missile And Space Complex (PKMTR). Debris objects in space refer to the collection of defunct objects orbiting the Earth. Examples of debris include non-operational satellites, rocket bodies, and fragments generated from explosions, collisions, or faulty payload assembly.

Loading next visibility...
BREEZE-KM DEB details
Identifier
41722, 2015-020K
Orbit
LEO
Last TLE update1 day ago
Origin
Flag of CISVVKO VKS (CIS)
ManufacturerKhrunichev
MissionSpacecraft
Bus & MotorUnknown
MassUnknown
Launch date (UTC)
2015-03-31 (10 years ago)
Launch vehicleUnknown
Launch site
Plesetsk Missile And Space Complex (PKMTR)
Object type
Payload
Rocket body
Debris
Shape & HBRUnknown
Radar Cross SectionSmall (<0.1 m²)

Expand to show TLE details & history

TLE from 1 day ago
0 BREEZE-KM DEB
1 41722U 15020K   24360.42716593  .00000047  00000-0  17047-3 0  9999
2 41722  82.4894 250.1864 0179938   8.9383 351.4844 12.70499924423383
Epoch: 2024-12-25T10:15Z
Definitive object data (Epoch: 2024-12-25T10:15:07.136Z)
Latitude-0.00004°
Longitude1.98559°
Altitude1,244.619 km
Speed7.297 km/s
True Right ascension16h 40m 44s
True Declination0° 00' 00"
Sunlit
Object was in daylight at TLE epoch
Visualization TLE readout
Latitude-30.64585°
Longitude-3.19059°
Altitude1,279.009 km
Speed7.268 km/s
Apparent Right ascension19h 16m 33s
Apparent Declination-50° 59' 51"
Sunlit
Object is in daylight
Visualization observer readout
Local Sidereal Time11:54:48
Azimuth127.652° SE
Elevation-41.852°
Doppler factor1
Orbital elements
Apogee altitude1,516.764 km
Perigee altitude1,237.667 km
Semi-major axis7,755.352 km
Eccentricity0.0179938
Inclination82.4894°
RAAN250.1864°
Arg. of periapsis8.9383°
True anomaly351.17213°
Mean anomaly351.4844°
Eccentric anomaly351.32897°
Mean motion3.1779 °/min
BSTAR0.00017047
Orbital period113.28 mins
Loading maneuver chart data...
Loading historical data...
Loading historical data...
Loading historical data...
Loading historical data...
Loading historical data...
Loading historical data...
Loading historical data...

BREEZE-KM DEB Visibility forecast

Observer location: undefined°, undefined

Span
Click to sort rows by Start time (UTC) header in descending order
Start Az.
Max El. time (UTC)
Max El. Az.
Max El.
End time (UTC)
End Az.
13 mins2024-12-26 16:35:16.655Z148.859° SSE2024-12-26 16:41:16.655Z92.252° ESE30.837°2024-12-26 16:48:16.655Z24.219° NE
12 mins2024-12-26 18:30:16.655Z224.489° SW2024-12-26 18:35:16.655Z277.642° WNW32.373°2024-12-26 18:42:16.655Z351.739° N
7 mins2024-12-27 02:34:16.655Z37.359° NE2024-12-27 02:37:16.655Z59.891° ENE14.58°2024-12-27 02:41:16.655Z89.148° E
15 mins2024-12-27 04:26:16.655Z356.786° N2024-12-27 04:33:16.655Z89.168° E44.198°2024-12-27 04:41:16.655Z167.14° S
10 mins2024-12-27 06:22:16.655Z314.682° NW2024-12-27 06:26:16.655Z281.834° WNW20.45°2024-12-27 06:32:16.655Z236.163° WSW
|